When you browse on this site, cookies collect data to enhance your experience and personalize the content and advertising you see.
Visit our Privacy Policy to learn more. By continuing to use the site, you agree to this use of cookies and data.
  • En España
  • Lista de países
  • Para 7 días
  • Temperatura del agua
  • El tiempo en el mapa
  • Informadores
  • user-avatar
    Iniciar sesión

    Tiempo cada hora Maturín

    Hoy, 28 Mayo, Jueves

    Tiempo Temperatura Precipitaciones Viento Presión Humedad
    00:00 +27°C° 0.1 mm 2 mps 756 mmHg 88%
    01:00 +26°C° 0.1 mm 1 mps 756 mmHg 89%
    02:00 +26°C° 0 mm 1 mps 755 mmHg 90%
    03:00 +26°C° 0.1 mm 1 mps 755 mmHg 91%
    04:00 +25°C° 0.1 mm 1 mps 755 mmHg 93%
    05:00 +25°C° 0.1 mm 1 mps 756 mmHg 94%
    06:00 +26°C° 0.1 mm 1 mps 756 mmHg 89%
    07:00 +27°C° 0.1 mm 2 mps 756 mmHg 84%
    08:00 +28°C° 0.1 mm 3 mps 757 mmHg 78%
    09:00 +30°C° 0 mm 3 mps 757 mmHg 70%
    10:00 +31°C° 0 mm 3 mps 757 mmHg 62%
    11:00 +34°C° 0 mm 3 mps 757 mmHg 54%
    12:00 +34°C° 0 mm 3 mps 756 mmHg 52%
    13:00 +35°C° 0 mm 3 mps 755 mmHg 49%
    14:00 +36°C° 0 mm 2 mps 754 mmHg 46%
    15:00 +35°C° 0 mm 3 mps 754 mmHg 48%
    16:00 +35°C° 0 mm 3 mps 754 mmHg 49%
    17:00 +34°C° 0 mm 3 mps 753 mmHg 50%
    18:00 +33°C° 0 mm 3 mps 754 mmHg 57%
    19:00 +30°C° 0 mm 3 mps 754 mmHg 64%
    20:00 +28°C° 0 mm 2 mps 755 mmHg 70%
    21:00 +28°C° 0 mm 2 mps 755 mmHg 74%
    22:00 +28°C° 0 mm 2 mps 756 mmHg 77%
    23:00 +27°C° 0 mm 2 mps 756 mmHg 80%

    Mañana, 29 Mayo, Viernes

    Tiempo Temperatura Precipitaciones Viento Presión Humedad
    00:00 +27°C° 0 mm 2 mps 756 mmHg 82%
    01:00 +27°C° 0 mm 1 mps 756 mmHg 85%
    02:00 +26°C° 0 mm 1 mps 755 mmHg 88%
    03:00 +26°C° 0.1 mm 1 mps 755 mmHg 89%
    04:00 +26°C° 0.1 mm 1 mps 755 mmHg 91%
    05:00 +26°C° 0.1 mm 1 mps 755 mmHg 93%
    06:00 +27°C° 0.1 mm 1 mps 756 mmHg 88%
    07:00 +27°C° 0.1 mm 2 mps 756 mmHg 84%
    08:00 +28°C° 0.1 mm 2 mps 756 mmHg 79%
    09:00 +30°C° 0 mm 3 mps 756 mmHg 69%
    10:00 +33°C° 0 mm 3 mps 756 mmHg 60%
    11:00 +34°C° 0 mm 3 mps 756 mmHg 50%
    12:00 +35°C° 0 mm 3 mps 756 mmHg 47%
    13:00 +36°C° 0 mm 3 mps 755 mmHg 45%
    14:00 +37°C° 0 mm 3 mps 754 mmHg 43%
    15:00 +36°C° 0 mm 3 mps 754 mmHg 44%
    16:00 +36°C° 0 mm 3 mps 753 mmHg 46%
    17:00 +35°C° 0 mm 3 mps 753 mmHg 47%
    18:00 +33°C° 0 mm 3 mps 754 mmHg 54%
    19:00 +31°C° 0 mm 3 mps 755 mmHg 60%
    20:00 +29°C° 0 mm 3 mps 755 mmHg 66%
    21:00 +28°C° 0 mm 3 mps 756 mmHg 71%
    22:00 +28°C° 0 mm 2 mps 756 mmHg 76%
    23:00 +27°C° 0 mm 2 mps 757 mmHg 80%

    Pasado mañana, 30 Mayo, Sábado

    Tiempo Temperatura Precipitaciones Viento Presión Humedad
    00:00 +27°C° 0 mm 2 mps 756 mmHg 84%
    01:00 +26°C° 0 mm 1 mps 756 mmHg 87%
    02:00 +26°C° 0 mm 1 mps 756 mmHg 90%
    03:00 +25°C° 0.1 mm 1 mps 756 mmHg 93%
    04:00 +25°C° 0.1 mm 1 mps 756 mmHg 94%
    05:00 +25°C° 0.1 mm 1 mps 756 mmHg 95%
    06:00 +26°C° 0 mm 1 mps 756 mmHg 90%
    07:00 +27°C° 0 mm 1 mps 756 mmHg 84%
    08:00 +28°C° 0 mm 1 mps 756 mmHg 79%
    09:00 +30°C° 0.1 mm 1 mps 756 mmHg 73%
    10:00 +31°C° 0.1 mm 2 mps 756 mmHg 67%
    11:00 +34°C° 0.1 mm 2 mps 756 mmHg 60%
    12:00 +34°C° 1.2 mm 2 mps 755 mmHg 63%
    13:00 +33°C° 1.2 mm 3 mps 755 mmHg 65%
    14:00 +33°C° 1.2 mm 3 mps 754 mmHg 67%
    15:00 +33°C° 1.8 mm 3 mps 754 mmHg 70%
    16:00 +31°C° 1.8 mm 3 mps 754 mmHg 73%
    17:00 +30°C° 1.8 mm 4 mps 753 mmHg 77%
    18:00 +29°C° 1.3 mm 3 mps 754 mmHg 80%
    19:00 +28°C° 1.3 mm 3 mps 755 mmHg 84%
    20:00 +27°C° 1.3 mm 2 mps 755 mmHg 87%
    21:00 +27°C° 2.3 mm 2 mps 756 mmHg 89%
    22:00 +27°C° 2.3 mm 2 mps 756 mmHg 90%
    23:00 +27°C° 2.3 mm 2 mps 756 mmHg 92%

    31 Mayo, Domingo

    Tiempo Temperatura Precipitaciones Viento Presión Humedad
    00:00 +26°C° 1.9 mm 2 mps 756 mmHg 93%
    01:00 +26°C° 1.9 mm 2 mps 756 mmHg 94%
    02:00 +26°C° 1.9 mm 1 mps 755 mmHg 95%
    03:00 +26°C° 0.6 mm 1 mps 755 mmHg 95%
    04:00 +26°C° 0.6 mm 1 mps 755 mmHg 95%
    05:00 +26°C° 0.6 mm 2 mps 755 mmHg 96%
    06:00 +26°C° 0.1 mm 2 mps 756 mmHg 93%
    07:00 +27°C° 0.1 mm 2 mps 756 mmHg 91%
    08:00 +27°C° 0.1 mm 2 mps 757 mmHg 89%
    09:00 +29°C° 1 mm 2 mps 757 mmHg 83%
    10:00 +30°C° 1 mm 3 mps 757 mmHg 78%
    11:00 +31°C° 1 mm 3 mps 757 mmHg 72%
    12:00 +31°C° 1.2 mm 3 mps 756 mmHg 72%
    13:00 +31°C° 1.2 mm 3 mps 755 mmHg 71%
    14:00 +31°C° 1.2 mm 3 mps 755 mmHg 70%
    15:00 +31°C° 0.4 mm 3 mps 754 mmHg 73%
    16:00 +30°C° 0.4 mm 3 mps 754 mmHg 76%
    17:00 +29°C° 0.4 mm 3 mps 754 mmHg 78%
    18:00 +29°C° 0 mm 3 mps 754 mmHg 82%
    19:00 +28°C° 0 mm 3 mps 755 mmHg 85%
    20:00 +27°C° 0 mm 3 mps 755 mmHg 89%
    21:00 +27°C° 0.1 mm 2 mps 755 mmHg 90%
    22:00 +26°C° 0.1 mm 2 mps 756 mmHg 92%
    23:00 +26°C° 0.1 mm 2 mps 756 mmHg 93%

    1 Junio, Lunes

    Tiempo Temperatura Precipitaciones Viento Presión Humedad
    00:00 +26°C° 0.2 mm 2 mps 756 mmHg 94%
    01:00 +26°C° 0.2 mm 2 mps 756 mmHg 95%
    02:00 +25°C° 0.2 mm 2 mps 755 mmHg 96%
    03:00 +25°C° 0.1 mm 2 mps 755 mmHg 96%
    04:00 +25°C° 0.1 mm 1 mps 755 mmHg 96%
    05:00 +25°C° 0.1 mm 1 mps 755 mmHg 96%
    06:00 +26°C° 0.1 mm 2 mps 756 mmHg 91%
    07:00 +27°C° 0.1 mm 2 mps 756 mmHg 87%
    08:00 +28°C° 0.1 mm 2 mps 757 mmHg 83%
    09:00 +30°C° 0.1 mm 2 mps 757 mmHg 73%
    10:00 +31°C° 0.1 mm 3 mps 757 mmHg 64%
    11:00 +34°C° 0.1 mm 3 mps 757 mmHg 54%
    12:00 +35°C° 0 mm 3 mps 756 mmHg 51%
    13:00 +35°C° 0 mm 3 mps 755 mmHg 48%
    14:00 +36°C° 0 mm 3 mps 755 mmHg 45%
    15:00 +35°C° 0 mm 3 mps 754 mmHg 48%
    16:00 +35°C° 0 mm 3 mps 754 mmHg 51%
    17:00 +34°C° 0 mm 4 mps 753 mmHg 54%
    18:00 +31°C° 0 mm 3 mps 754 mmHg 61%
    19:00 +29°C° 0 mm 3 mps 755 mmHg 68%
    20:00 +28°C° 0 mm 3 mps 755 mmHg 75%
    21:00 +27°C° 0 mm 3 mps 755 mmHg 79%
    22:00 +27°C° 0 mm 2 mps 756 mmHg 83%
    23:00 +26°C° 0 mm 2 mps 756 mmHg 87%

    2 Junio, Martes

    Tiempo Temperatura Precipitaciones Viento Presión Humedad
    00:00 +26°C° 0 mm 2 mps 756 mmHg 89%
    01:00 +25°C° 0 mm 2 mps 756 mmHg 91%
    02:00 +25°C° 0 mm 2 mps 755 mmHg 93%
    03:00 +25°C° 0 mm 2 mps 755 mmHg 94%
    04:00 +25°C° 0 mm 1 mps 755 mmHg 95%
    05:00 +25°C° 0 mm 1 mps 755 mmHg 96%
    06:00 +26°C° 0 mm 1 mps 756 mmHg 90%
    07:00 +27°C° 0 mm 2 mps 756 mmHg 84%
    08:00 +28°C° 0 mm 2 mps 757 mmHg 79%
    09:00 +29°C° 0 mm 2 mps 757 mmHg 71%
    10:00 +31°C° 0 mm 3 mps 757 mmHg 64%
    11:00 +33°C° 0 mm 3 mps 757 mmHg 56%
    12:00 +34°C° 0 mm 3 mps 756 mmHg 54%
    13:00 +34°C° 0 mm 3 mps 755 mmHg 52%
    14:00 +35°C° 0 mm 3 mps 754 mmHg 50%
    15:00 +34°C° 0 mm 3 mps 754 mmHg 52%
    16:00 +34°C° 0 mm 3 mps 753 mmHg 53%
    17:00 +33°C° 0 mm 4 mps 753 mmHg 55%
    18:00 +31°C° 0 mm 3 mps 754 mmHg 60%
    19:00 +29°C° 0 mm 3 mps 754 mmHg 66%
    20:00 +27°C° 0 mm 2 mps 755 mmHg 71%
    21:00 +27°C° 0 mm 2 mps 755 mmHg 75%
    22:00 +26°C° 0 mm 2 mps 756 mmHg 78%
    23:00 +25°C° 0 mm 2 mps 756 mmHg 82%
    Mostrar más